Year,Month,Day,Hour,Minute,Value (Times are PST for temperature in C)
2018,09,29,00,00,9.80
2018,09,29,00,01,9.80
2018,09,29,00,02,9.80
2018,09,29,00,03,9.80
2018,09,29,00,04,9.80
2018,09,29,00,05,9.80
2018,09,29,00,06,9.80
2018,09,29,00,07,9.80
2018,09,29,00,08,9.80
2018,09,29,00,09,9.70
2018,09,29,00,10,9.70
2018,09,29,00,11,9.70
2018,09,29,00,12,9.70
2018,09,29,00,13,9.70
2018,09,29,00,14,9.70
2018,09,29,00,15,9.70
2018,09,29,00,16,9.70
2018,09,29,00,17,9.70
2018,09,29,00,18,9.60
2018,09,29,00,19,9.60
2018,09,29,00,20,9.60
2018,09,29,00,21,9.60
2018,09,29,00,22,9.60
2018,09,29,00,23,9.60
2018,09,29,00,24,9.60
2018,09,29,00,25,9.60
2018,09,29,00,26,9.60
2018,09,29,00,27,9.60
2018,09,29,00,28,9.60
2018,09,29,00,29,9.60
2018,09,29,00,30,9.60
2018,09,29,00,31,9.60
2018,09,29,00,32,9.50
2018,09,29,00,33,9.50
2018,09,29,00,34,9.50
2018,09,29,00,35,9.40
2018,09,29,00,36,9.40
2018,09,29,00,37,9.40
2018,09,29,00,38,9.40
2018,09,29,00,39,9.40
2018,09,29,00,40,9.40
2018,09,29,00,41,9.40
2018,09,29,00,42,9.40
2018,09,29,00,43,9.50
2018,09,29,00,44,9.50
2018,09,29,00,45,9.50
2018,09,29,00,46,9.50
2018,09,29,00,47,9.60
2018,09,29,00,48,9.60
2018,09,29,00,49,9.60
2018,09,29,00,50,9.60
2018,09,29,00,51,9.60
2018,09,29,00,52,9.60
2018,09,29,00,53,9.60
2018,09,29,00,54,9.60
2018,09,29,00,55,9.60
2018,09,29,00,56,9.60
2018,09,29,00,57,9.60
2018,09,29,00,58,9.50
2018,09,29,00,59,9.50
2018,09,29,01,00,9.50
2018,09,29,01,01,9.40
2018,09,29,01,02,9.40
2018,09,29,01,03,9.40
2018,09,29,01,04,9.40
2018,09,29,01,05,9.40
2018,09,29,01,06,9.40
2018,09,29,01,07,9.40
2018,09,29,01,08,9.40
2018,09,29,01,09,9.40
2018,09,29,01,10,9.40
2018,09,29,01,11,9.40
2018,09,29,01,12,9.30
2018,09,29,01,13,9.30
2018,09,29,01,14,9.30
2018,09,29,01,15,9.30
2018,09,29,01,16,9.30
2018,09,29,01,17,9.30
2018,09,29,01,18,9.30
2018,09,29,01,19,9.30
2018,09,29,01,20,9.30
2018,09,29,01,21,9.30
2018,09,29,01,22,9.30
2018,09,29,01,23,9.30
2018,09,29,01,24,9.20
2018,09,29,01,25,9.20
2018,09,29,01,26,9.20
2018,09,29,01,27,9.20
2018,09,29,01,28,9.10
2018,09,29,01,29,9.10
2018,09,29,01,30,9.10
2018,09,29,01,31,9.10
2018,09,29,01,32,9.00
2018,09,29,01,33,9.00
2018,09,29,01,34,9.00
2018,09,29,01,35,9.00
2018,09,29,01,36,8.90
2018,09,29,01,37,8.90
2018,09,29,01,38,9.00
2018,09,29,01,39,9.00
2018,09,29,01,40,9.10
2018,09,29,01,41,9.10
2018,09,29,01,42,9.10
2018,09,29,01,43,9.10
2018,09,29,01,44,9.10
2018,09,29,01,45,9.20
2018,09,29,01,46,9.20
2018,09,29,01,47,9.20
2018,09,29,01,48,9.20
2018,09,29,01,49,9.20
2018,09,29,01,50,9.20
2018,09,29,01,51,9.20
2018,09,29,01,52,9.20
2018,09,29,01,53,9.20
2018,09,29,01,54,9.20
2018,09,29,01,55,9.20
2018,09,29,01,56,9.20
2018,09,29,01,57,9.20
2018,09,29,01,58,9.20
2018,09,29,01,59,9.20
2018,09,29,02,00,9.20
2018,09,29,02,01,9.20
2018,09,29,02,02,9.20
2018,09,29,02,03,9.30
2018,09,29,02,04,9.30
2018,09,29,02,05,9.30
2018,09,29,02,06,9.20
2018,09,29,02,07,9.20
2018,09,29,02,08,9.20
2018,09,29,02,09,9.20
2018,09,29,02,10,9.20
2018,09,29,02,11,9.10
2018,09,29,02,12,9.10
2018,09,29,02,13,9.10
2018,09,29,02,14,9.00
2018,09,29,02,15,9.00
2018,09,29,02,16,9.00
2018,09,29,02,17,8.90
2018,09,29,02,18,8.90
2018,09,29,02,19,8.90
2018,09,29,02,20,8.90
2018,09,29,02,21,8.90
2018,09,29,02,22,8.90
2018,09,29,02,23,8.90
2018,09,29,02,24,8.90
2018,09,29,02,25,8.90
2018,09,29,02,26,8.90
2018,09,29,02,27,8.90
2018,09,29,02,28,8.90
2018,09,29,02,29,8.90
2018,09,29,02,30,8.90
2018,09,29,02,31,8.90
2018,09,29,02,32,8.90
2018,09,29,02,33,8.90
2018,09,29,02,34,8.90
2018,09,29,02,35,8.90
2018,09,29,02,36,8.80
2018,09,29,02,37,8.80
2018,09,29,02,38,8.80
2018,09,29,02,39,8.80
2018,09,29,02,40,8.80
2018,09,29,02,41,8.80
2018,09,29,02,42,8.80
2018,09,29,02,43,8.90
2018,09,29,02,44,8.90
2018,09,29,02,45,8.80
2018,09,29,02,46,8.80
2018,09,29,02,47,8.80
2018,09,29,02,48,8.80
2018,09,29,02,49,8.80
2018,09,29,02,50,8.80
2018,09,29,02,51,8.80
2018,09,29,02,52,8.80
2018,09,29,02,53,8.80
2018,09,29,02,54,8.80
2018,09,29,02,55,8.80
2018,09,29,02,56,8.80
2018,09,29,02,57,8.80
2018,09,29,02,58,8.80
2018,09,29,02,59,8.80
2018,09,29,03,00,8.80
2018,09,29,03,01,8.70
2018,09,29,03,02,8.70
2018,09,29,03,03,8.70
2018,09,29,03,04,8.70
2018,09,29,03,05,8.70
2018,09,29,03,06,8.70
2018,09,29,03,07,8.70
2018,09,29,03,08,8.80
2018,09,29,03,09,8.80
2018,09,29,03,10,8.80
2018,09,29,03,11,8.80
2018,09,29,03,12,8.80
2018,09,29,03,13,8.80
2018,09,29,03,14,8.80
2018,09,29,03,15,8.80
2018,09,29,03,16,8.70
2018,09,29,03,17,8.70
2018,09,29,03,18,8.70
2018,09,29,03,19,8.70
2018,09,29,03,20,8.70
2018,09,29,03,21,8.70
2018,09,29,03,22,8.70
2018,09,29,03,23,8.60
2018,09,29,03,24,8.60
2018,09,29,03,25,8.70
2018,09,29,03,26,8.60
2018,09,29,03,27,8.70
2018,09,29,03,28,8.70
2018,09,29,03,29,8.70
2018,09,29,03,30,8.70
2018,09,29,03,31,8.70
2018,09,29,03,32,8.70
2018,09,29,03,33,8.60
2018,09,29,03,34,8.60
2018,09,29,03,35,8.60
2018,09,29,03,36,8.60
2018,09,29,03,37,8.60
2018,09,29,03,38,8.60
2018,09,29,03,39,8.50
2018,09,29,03,40,8.50
2018,09,29,03,41,8.50
2018,09,29,03,42,8.50
2018,09,29,03,43,8.40
2018,09,29,03,44,8.40
2018,09,29,03,45,8.40
2018,09,29,03,46,8.40
2018,09,29,03,47,8.40
2018,09,29,03,48,8.40
2018,09,29,03,49,8.40
2018,09,29,03,50,8.40
2018,09,29,03,51,8.40
2018,09,29,03,52,8.40
2018,09,29,03,53,8.40
2018,09,29,03,54,8.50
2018,09,29,03,55,8.50
2018,09,29,03,56,8.50
2018,09,29,03,57,8.50
2018,09,29,03,58,8.50
2018,09,29,03,59,8.50
2018,09,29,04,00,8.50
2018,09,29,04,01,8.40
2018,09,29,04,02,8.40
2018,09,29,04,03,8.40
2018,09,29,04,04,8.40
2018,09,29,04,05,8.40
2018,09,29,04,06,8.40
2018,09,29,04,07,8.40
2018,09,29,04,08,8.40
2018,09,29,04,09,8.40
2018,09,29,04,10,8.30
2018,09,29,04,11,8.30
2018,09,29,04,12,8.30
2018,09,29,04,13,8.30
2018,09,29,04,14,8.30
2018,09,29,04,15,8.30
2018,09,29,04,16,8.30
2018,09,29,04,17,8.20
2018,09,29,04,18,8.20
2018,09,29,04,19,8.20
2018,09,29,04,20,8.20
2018,09,29,04,21,8.20
2018,09,29,04,22,8.20
2018,09,29,04,23,8.20
2018,09,29,04,24,8.20
2018,09,29,04,25,8.20
2018,09,29,04,26,8.20
2018,09,29,04,27,8.20
2018,09,29,04,28,8.20
2018,09,29,04,29,8.20
2018,09,29,04,30,8.20
2018,09,29,04,31,8.20
2018,09,29,04,32,8.20
2018,09,29,04,33,8.20
2018,09,29,04,34,8.20
2018,09,29,04,35,8.20
2018,09,29,04,36,8.30
2018,09,29,04,37,8.20
2018,09,29,04,38,8.20
2018,09,29,04,39,8.20
2018,09,29,04,40,8.20
2018,09,29,04,41,8.20
2018,09,29,04,42,8.20
2018,09,29,04,43,8.20
2018,09,29,04,44,8.20
2018,09,29,04,45,8.20
2018,09,29,04,46,8.20
2018,09,29,04,47,8.20
2018,09,29,04,48,8.20
2018,09,29,04,49,8.20
2018,09,29,04,50,8.20
2018,09,29,04,51,8.20
2018,09,29,04,52,8.20
2018,09,29,04,53,8.20
2018,09,29,04,54,8.20
2018,09,29,04,55,8.20
2018,09,29,04,56,8.20
2018,09,29,04,57,8.20
2018,09,29,04,58,8.10
2018,09,29,04,59,8.10
2018,09,29,05,00,8.10
2018,09,29,05,01,8.10
2018,09,29,05,02,8.20
2018,09,29,05,03,8.20
2018,09,29,05,04,8.20
2018,09,29,05,05,8.20
2018,09,29,05,06,8.10
2018,09,29,05,07,8.10
2018,09,29,05,08,8.10
2018,09,29,05,09,8.10
2018,09,29,05,10,8.10
2018,09,29,05,11,8.10
2018,09,29,05,12,8.10
2018,09,29,05,13,8.10
2018,09,29,05,14,8.10
2018,09,29,05,15,8.10
2018,09,29,05,16,8.10
2018,09,29,05,17,8.00
2018,09,29,05,18,8.00
2018,09,29,05,19,8.00
2018,09,29,05,20,8.00
2018,09,29,05,21,7.90
2018,09,29,05,22,7.90
2018,09,29,05,23,7.90
2018,09,29,05,24,7.90
2018,09,29,05,25,7.90
2018,09,29,05,26,7.90
2018,09,29,05,27,7.90
2018,09,29,05,28,7.90
2018,09,29,05,29,7.90
2018,09,29,05,30,7.90
2018,09,29,05,31,7.90
2018,09,29,05,32,7.90
2018,09,29,05,33,7.90
2018,09,29,05,34,7.90
2018,09,29,05,35,7.90
2018,09,29,05,36,7.90
2018,09,29,05,37,7.80
2018,09,29,05,38,7.80
2018,09,29,05,39,7.90
2018,09,29,05,40,7.90
2018,09,29,05,41,7.90
2018,09,29,05,42,7.90
2018,09,29,05,43,7.90
2018,09,29,05,44,7.90
2018,09,29,05,45,7.90
2018,09,29,05,46,7.90
2018,09,29,05,47,7.90
2018,09,29,05,48,7.90
2018,09,29,05,49,7.90
2018,09,29,05,50,7.90
2018,09,29,05,51,7.90
2018,09,29,05,52,7.90
2018,09,29,05,53,7.80
2018,09,29,05,54,7.80
2018,09,29,05,55,7.80
2018,09,29,05,56,7.80
2018,09,29,05,57,7.80
2018,09,29,05,58,7.80
2018,09,29,05,59,7.80
2018,09,29,06,00,7.80
2018,09,29,06,01,7.80
2018,09,29,06,02,7.70
2018,09,29,06,03,7.70
2018,09,29,06,04,7.70
2018,09,29,06,05,7.70
2018,09,29,06,06,7.70
2018,09,29,06,07,7.70
2018,09,29,06,08,7.70
2018,09,29,06,09,7.70
2018,09,29,06,10,7.70
2018,09,29,06,11,7.70
2018,09,29,06,12,7.70
2018,09,29,06,13,7.60
2018,09,29,06,14,7.60
2018,09,29,06,15,7.60
2018,09,29,06,16,7.60
2018,09,29,06,17,7.60
2018,09,29,06,18,7.50
2018,09,29,06,19,7.50
2018,09,29,06,20,7.50
2018,09,29,06,21,7.50
2018,09,29,06,22,7.50
2018,09,29,06,23,7.50
2018,09,29,06,24,7.50
2018,09,29,06,25,7.50
2018,09,29,06,26,7.50
2018,09,29,06,27,7.50
2018,09,29,06,28,7.50
2018,09,29,06,29,7.50
2018,09,29,06,30,7.50
2018,09,29,06,31,7.60
2018,09,29,06,32,7.60
2018,09,29,06,33,7.60
2018,09,29,06,34,7.60
2018,09,29,06,35,7.60
2018,09,29,06,36,7.60
2018,09,29,06,37,7.60
2018,09,29,06,38,7.60
2018,09,29,06,39,7.60
2018,09,29,06,40,7.60
2018,09,29,06,41,7.60
2018,09,29,06,42,7.60
2018,09,29,06,43,7.60
2018,09,29,06,44,7.60
2018,09,29,06,45,7.60
2018,09,29,06,46,7.60
2018,09,29,06,47,7.60
2018,09,29,06,48,7.60
2018,09,29,06,49,7.60
2018,09,29,06,50,7.60
2018,09,29,06,51,7.60
2018,09,29,06,52,7.60
2018,09,29,06,53,7.60
2018,09,29,06,54,7.60
2018,09,29,06,55,7.60
2018,09,29,06,56,7.60
2018,09,29,06,57,7.50
2018,09,29,06,58,7.50
2018,09,29,06,59,7.50
2018,09,29,07,00,7.60
2018,09,29,07,01,7.50
2018,09,29,07,02,7.50
2018,09,29,07,03,7.50
2018,09,29,07,04,7.50
2018,09,29,07,05,7.60
2018,09,29,07,06,7.60
2018,09,29,07,07,7.60
2018,09,29,07,08,7.60
2018,09,29,07,09,7.60
2018,09,29,07,10,7.60
2018,09,29,07,11,7.60
2018,09,29,07,12,7.60
2018,09,29,07,13,7.60
2018,09,29,07,14,7.60
2018,09,29,07,15,7.60
2018,09,29,07,16,7.60
2018,09,29,07,17,7.60
2018,09,29,07,18,7.60
2018,09,29,07,19,7.60
2018,09,29,07,20,7.60
2018,09,29,07,21,7.50
2018,09,29,07,22,7.50
2018,09,29,07,23,7.50
2018,09,29,07,24,7.50
2018,09,29,07,25,7.40
2018,09,29,07,26,7.40
2018,09,29,07,27,7.40
2018,09,29,07,28,7.40
2018,09,29,07,29,7.40
2018,09,29,07,30,7.40
2018,09,29,07,31,7.40
2018,09,29,07,32,7.40
2018,09,29,07,33,7.40
2018,09,29,07,34,7.40
2018,09,29,07,35,7.40
2018,09,29,07,36,7.40
2018,09,29,07,37,7.40
2018,09,29,07,38,7.40
2018,09,29,07,39,7.40
2018,09,29,07,40,7.40
2018,09,29,07,41,7.40
2018,09,29,07,42,7.40
2018,09,29,07,43,7.40
2018,09,29,07,44,7.40
2018,09,29,07,45,7.40
2018,09,29,07,46,7.40
2018,09,29,07,47,7.40
2018,09,29,07,48,7.40
2018,09,29,07,49,7.40
2018,09,29,07,50,7.40
2018,09,29,07,51,7.40
2018,09,29,07,52,7.40
2018,09,29,07,53,7.40
2018,09,29,07,54,7.40
2018,09,29,07,55,7.40
2018,09,29,07,56,7.40
2018,09,29,07,57,7.40
2018,09,29,07,58,7.40
2018,09,29,07,59,7.40
2018,09,29,08,00,7.40
2018,09,29,08,01,7.40
2018,09,29,08,02,7.30
2018,09,29,08,03,7.30
2018,09,29,08,04,7.30
2018,09,29,08,05,7.30
2018,09,29,08,06,7.30
2018,09,29,08,07,7.30
2018,09,29,08,08,7.30
2018,09,29,08,09,7.30
2018,09,29,08,10,7.30
2018,09,29,08,11,7.30
2018,09,29,08,12,7.30
2018,09,29,08,13,7.30
2018,09,29,08,14,7.30
2018,09,29,08,15,7.30
2018,09,29,08,16,7.30
2018,09,29,08,17,7.30
2018,09,29,08,18,7.30
2018,09,29,08,19,7.30
2018,09,29,08,20,7.30
2018,09,29,08,21,7.30
2018,09,29,08,22,7.30
2018,09,29,08,23,7.20
2018,09,29,08,24,7.20
2018,09,29,08,25,7.20
2018,09,29,08,26,7.20
2018,09,29,08,27,7.20
2018,09,29,08,28,7.20
2018,09,29,08,29,7.20
2018,09,29,08,30,7.30
2018,09,29,08,31,7.30
2018,09,29,08,32,7.30
2018,09,29,08,33,7.30
2018,09,29,08,34,7.30
2018,09,29,08,35,7.30
2018,09,29,08,36,7.30
2018,09,29,08,37,7.30
2018,09,29,08,38,7.30
2018,09,29,08,39,7.40
2018,09,29,08,40,7.40
2018,09,29,08,41,7.50
2018,09,29,08,42,7.50
2018,09,29,08,43,7.60
2018,09,29,08,44,7.70
2018,09,29,08,45,7.80
2018,09,29,08,46,7.80
2018,09,29,08,47,7.90
2018,09,29,08,48,7.90
2018,09,29,08,49,7.90
2018,09,29,08,50,8.00
2018,09,29,08,51,8.00
2018,09,29,08,52,8.10
2018,09,29,08,53,8.10
2018,09,29,08,54,8.10
2018,09,29,08,55,8.10
2018,09,29,08,56,8.20
2018,09,29,08,57,8.20
2018,09,29,08,58,8.20
2018,09,29,08,59,8.30
2018,09,29,09,00,8.30
2018,09,29,09,01,8.30
2018,09,29,09,02,8.30
2018,09,29,09,03,8.40
2018,09,29,09,04,8.40
2018,09,29,09,05,8.40
2018,09,29,09,06,8.40
2018,09,29,09,07,8.50
2018,09,29,09,08,8.60
2018,09,29,09,09,8.60
2018,09,29,09,10,8.60
2018,09,29,09,11,8.60
2018,09,29,09,12,8.70
2018,09,29,09,13,8.70
2018,09,29,09,14,8.70
2018,09,29,09,15,8.70
2018,09,29,09,16,8.70
2018,09,29,09,17,8.70
2018,09,29,09,18,8.80
2018,09,29,09,19,8.80
2018,09,29,09,20,8.90
2018,09,29,09,21,8.90
2018,09,29,09,22,9.00
2018,09,29,09,23,9.00
2018,09,29,09,24,9.00
2018,09,29,09,25,9.10
2018,09,29,09,26,9.10
2018,09,29,09,27,9.20
2018,09,29,09,28,9.20
2018,09,29,09,29,9.20
2018,09,29,09,30,9.20
2018,09,29,09,31,9.20
2018,09,29,09,32,9.30
2018,09,29,09,33,9.30
2018,09,29,09,34,9.30
2018,09,29,09,35,9.40
2018,09,29,09,36,9.40
2018,09,29,09,37,9.50
2018,09,29,09,38,9.50
2018,09,29,09,39,9.60
2018,09,29,09,40,9.60
2018,09,29,09,41,9.70
2018,09,29,09,42,9.80
2018,09,29,09,43,9.80
2018,09,29,09,44,9.90
2018,09,29,09,45,10.00
2018,09,29,09,46,10.00
2018,09,29,09,47,10.10
2018,09,29,09,48,10.10
2018,09,29,09,49,10.20
2018,09,29,09,50,10.30
2018,09,29,09,51,10.40
2018,09,29,09,52,10.40
2018,09,29,09,53,10.50
2018,09,29,09,54,10.60
2018,09,29,09,55,10.70
2018,09,29,09,56,10.70
2018,09,29,09,57,10.80
2018,09,29,09,58,10.80
2018,09,29,09,59,10.80
2018,09,29,10,00,10.90
2018,09,29,10,01,11.00
2018,09,29,10,02,11.10
2018,09,29,10,03,11.10
2018,09,29,10,04,11.10
2018,09,29,10,05,11.20
2018,09,29,10,06,11.20
2018,09,29,10,07,11.30
2018,09,29,10,08,11.30
2018,09,29,10,09,11.30
2018,09,29,10,10,11.40
2018,09,29,10,11,11.40
2018,09,29,10,12,11.40
2018,09,29,10,13,11.50
2018,09,29,10,14,11.50
2018,09,29,10,15,11.60
2018,09,29,10,16,11.60
2018,09,29,10,17,11.70
2018,09,29,10,18,11.70
2018,09,29,10,19,11.80
2018,09,29,10,20,11.80
2018,09,29,10,21,11.90
2018,09,29,10,22,12.00
2018,09,29,10,23,12.00
2018,09,29,10,24,12.10
2018,09,29,10,25,12.10
2018,09,29,10,26,12.20
2018,09,29,10,27,12.20
2018,09,29,10,28,12.20
2018,09,29,10,29,12.30
2018,09,29,10,30,12.30
2018,09,29,10,31,12.30
2018,09,29,10,32,12.40
2018,09,29,10,33,12.50
2018,09,29,10,34,12.50
2018,09,29,10,35,12.60
2018,09,29,10,36,12.60
2018,09,29,10,37,12.60
2018,09,29,10,38,12.70
2018,09,29,10,39,12.70
2018,09,29,10,40,12.70
2018,09,29,10,41,12.80
2018,09,29,10,42,12.90
2018,09,29,10,43,12.90
2018,09,29,10,44,13.00
2018,09,29,10,45,13.10
2018,09,29,10,46,13.20
2018,09,29,10,47,13.30
2018,09,29,10,48,13.40
2018,09,29,10,49,13.50
2018,09,29,10,50,13.60
2018,09,29,10,51,13.70
2018,09,29,10,52,13.70
2018,09,29,10,53,13.70
2018,09,29,10,54,13.80
2018,09,29,10,55,13.80
2018,09,29,10,56,13.90
2018,09,29,10,57,14.00
2018,09,29,10,58,14.00
2018,09,29,10,59,14.10
2018,09,29,11,00,14.10
2018,09,29,11,01,14.20
2018,09,29,11,02,14.20
2018,09,29,11,03,14.30
2018,09,29,11,04,14.30
2018,09,29,11,05,14.30
2018,09,29,11,06,14.30
2018,09,29,11,07,14.40
2018,09,29,11,08,14.50
2018,09,29,11,09,14.50
2018,09,29,11,10,14.60
2018,09,29,11,11,14.60
2018,09,29,11,12,14.70
2018,09,29,11,13,14.80
2018,09,29,11,14,14.80
2018,09,29,11,15,14.90
2018,09,29,11,16,15.00
2018,09,29,11,17,15.10
2018,09,29,11,18,15.10
2018,09,29,11,19,15.20
2018,09,29,11,20,15.30
2018,09,29,11,21,15.30
2018,09,29,11,22,15.40
2018,09,29,11,23,15.40
2018,09,29,11,24,15.50
2018,09,29,11,25,15.60
2018,09,29,11,26,15.60
2018,09,29,11,27,15.70
2018,09,29,11,28,15.70
2018,09,29,11,29,15.70
2018,09,29,11,30,15.80
2018,09,29,11,31,15.80
2018,09,29,11,32,15.90
2018,09,29,11,33,16.00
2018,09,29,11,34,16.10
2018,09,29,11,35,16.20
2018,09,29,11,36,16.30
2018,09,29,11,37,16.40
2018,09,29,11,38,16.60
2018,09,29,11,39,16.70
2018,09,29,11,40,16.80
2018,09,29,11,41,16.90
2018,09,29,11,42,17.00
2018,09,29,11,43,17.20
2018,09,29,11,44,17.20
2018,09,29,11,45,17.30
2018,09,29,11,46,17.40
2018,09,29,11,47,17.40
2018,09,29,11,48,17.50
2018,09,29,11,49,17.60
2018,09,29,11,50,17.70
2018,09,29,11,51,17.80
2018,09,29,11,52,17.90
2018,09,29,11,53,17.90
2018,09,29,11,54,18.00
2018,09,29,11,55,18.00
2018,09,29,11,56,18.10
2018,09,29,11,57,18.10
2018,09,29,11,58,18.20
2018,09,29,11,59,18.20
2018,09,29,12,00,18.30
2018,09,29,12,01,18.30
2018,09,29,12,02,18.30
2018,09,29,12,03,18.30
2018,09,29,12,04,18.40
2018,09,29,12,05,18.40
2018,09,29,12,06,18.50
2018,09,29,12,07,18.50
2018,09,29,12,08,18.50
2018,09,29,12,09,18.50
2018,09,29,12,10,18.60
2018,09,29,12,11,18.60
2018,09,29,12,12,18.60
2018,09,29,12,13,18.60
2018,09,29,12,14,18.70
2018,09,29,12,15,18.70
2018,09,29,12,16,18.80
2018,09,29,12,17,18.90
2018,09,29,12,18,19.00
2018,09,29,12,19,19.00
2018,09,29,12,20,19.10
2018,09,29,12,21,19.20
2018,09,29,12,22,19.20
2018,09,29,12,23,19.30
2018,09,29,12,24,19.30
2018,09,29,12,25,19.20
2018,09,29,12,26,19.20
2018,09,29,12,27,19.20
2018,09,29,12,28,19.20
2018,09,29,12,29,19.20
2018,09,29,12,30,19.30
2018,09,29,12,31,19.40
2018,09,29,12,32,19.40
2018,09,29,12,33,19.50
2018,09,29,12,34,19.50
2018,09,29,12,35,19.60
2018,09,29,12,36,19.70
2018,09,29,12,37,19.80
2018,09,29,12,38,19.80
2018,09,29,12,39,19.90
2018,09,29,12,40,20.00
2018,09,29,12,41,20.10
2018,09,29,12,42,20.10
2018,09,29,12,43,20.10
2018,09,29,12,44,20.10
2018,09,29,12,45,20.20
2018,09,29,12,46,20.20
2018,09,29,12,47,20.20
2018,09,29,12,48,20.20
2018,09,29,12,49,20.20
2018,09,29,12,50,20.10
2018,09,29,12,51,20.00
2018,09,29,12,52,20.00
2018,09,29,12,53,19.90
2018,09,29,12,54,19.90
2018,09,29,12,55,19.90
2018,09,29,12,56,19.90
2018,09,29,12,57,19.80
2018,09,29,12,58,19.80
2018,09,29,12,59,19.80
2018,09,29,13,00,19.70
2018,09,29,13,01,19.60
2018,09,29,13,02,19.60
2018,09,29,13,03,19.50
2018,09,29,13,04,19.40
2018,09,29,13,05,19.40
2018,09,29,13,06,19.40
2018,09,29,13,07,19.50
2018,09,29,13,08,19.50
2018,09,29,13,09,19.60
2018,09,29,13,10,19.60
2018,09,29,13,11,19.60
2018,09,29,13,12,19.50
2018,09,29,13,13,19.50
2018,09,29,13,14,19.40
2018,09,29,13,15,19.30
2018,09,29,13,16,19.30
2018,09,29,13,17,19.30
2018,09,29,13,18,19.30
2018,09,29,13,19,19.30
2018,09,29,13,20,19.30
2018,09,29,13,21,19.40
2018,09,29,13,22,19.40
2018,09,29,13,23,19.40
2018,09,29,13,24,19.50
2018,09,29,13,25,19.50
2018,09,29,13,26,19.50
2018,09,29,13,27,19.60
2018,09,29,13,28,19.60
2018,09,29,13,29,19.60
2018,09,29,13,30,19.60
2018,09,29,13,31,19.70
2018,09,29,13,32,19.70
2018,09,29,13,33,19.70
2018,09,29,13,34,19.70
2018,09,29,13,35,19.80
2018,09,29,13,36,19.80
2018,09,29,13,37,19.80
2018,09,29,13,38,19.90
2018,09,29,13,39,20.00
2018,09,29,13,40,20.00
2018,09,29,13,41,20.10
2018,09,29,13,42,20.20
2018,09,29,13,43,20.20
2018,09,29,13,44,20.20
2018,09,29,13,45,20.20
2018,09,29,13,46,20.20
2018,09,29,13,47,20.20
2018,09,29,13,48,20.20
2018,09,29,13,49,20.20
2018,09,29,13,50,20.20
2018,09,29,13,51,20.20
2018,09,29,13,52,20.20
2018,09,29,13,53,20.20
2018,09,29,13,54,20.20
2018,09,29,13,55,20.20
2018,09,29,13,56,20.20
2018,09,29,13,57,20.20
2018,09,29,13,58,20.30
2018,09,29,13,59,20.30
2018,09,29,14,00,20.40
2018,09,29,14,01,20.50
2018,09,29,14,02,20.50
2018,09,29,14,03,20.50
2018,09,29,14,04,20.50
2018,09,29,14,05,20.40
2018,09,29,14,06,20.40
2018,09,29,14,07,20.40
2018,09,29,14,08,20.40
2018,09,29,14,09,20.30
2018,09,29,14,10,20.30
2018,09,29,14,11,20.20
2018,09,29,14,12,20.00
2018,09,29,14,13,19.90
2018,09,29,14,14,19.90
2018,09,29,14,15,19.80
2018,09,29,14,16,19.80
2018,09,29,14,17,19.80
2018,09,29,14,18,19.80
2018,09,29,14,19,19.80
2018,09,29,14,20,19.90
2018,09,29,14,21,19.90
2018,09,29,14,22,19.90
2018,09,29,14,23,19.90
2018,09,29,14,24,19.90
2018,09,29,14,25,19.90
2018,09,29,14,26,19.90
2018,09,29,14,27,20.00
2018,09,29,14,28,20.00
2018,09,29,14,29,20.00
2018,09,29,14,30,19.90
2018,09,29,14,31,19.90
2018,09,29,14,32,19.90
2018,09,29,14,33,19.90
2018,09,29,14,34,20.00
2018,09,29,14,35,20.00
2018,09,29,14,36,19.80
2018,09,29,14,37,19.70
2018,09,29,14,38,19.50
2018,09,29,14,39,19.40
2018,09,29,14,40,19.30
2018,09,29,14,41,19.30
2018,09,29,14,42,19.30
2018,09,29,14,43,19.30
2018,09,29,14,44,19.30
2018,09,29,14,45,19.30
2018,09,29,14,46,19.20
2018,09,29,14,47,19.20
2018,09,29,14,48,19.20
2018,09,29,14,49,19.20
2018,09,29,14,50,19.30
2018,09,29,14,51,19.30
2018,09,29,14,52,19.30
2018,09,29,14,53,19.30
2018,09,29,14,54,19.40
2018,09,29,14,55,19.50
2018,09,29,14,56,19.60
2018,09,29,14,57,19.60
2018,09,29,14,58,19.70
2018,09,29,14,59,19.70
2018,09,29,15,00,19.80
2018,09,29,15,01,19.80
2018,09,29,15,02,19.80
2018,09,29,15,03,19.80
2018,09,29,15,04,19.80
2018,09,29,15,05,19.80
2018,09,29,15,06,19.80
2018,09,29,15,07,19.80
2018,09,29,15,08,19.80
2018,09,29,15,09,19.80
2018,09,29,15,10,19.80
2018,09,29,15,11,19.80
2018,09,29,15,12,19.80
2018,09,29,15,13,19.70
2018,09,29,15,14,19.70
2018,09,29,15,15,19.60
2018,09,29,15,16,19.60
2018,09,29,15,17,19.60
2018,09,29,15,18,19.60
2018,09,29,15,19,19.60
2018,09,29,15,20,19.60
2018,09,29,15,21,19.70
2018,09,29,15,22,19.70
2018,09,29,15,23,19.70
2018,09,29,15,24,19.70
2018,09,29,15,25,19.70
2018,09,29,15,26,19.70
2018,09,29,15,27,19.80
2018,09,29,15,28,19.90
2018,09,29,15,29,19.90
2018,09,29,15,30,19.90
2018,09,29,15,31,19.90
2018,09,29,15,32,19.90
2018,09,29,15,33,19.90
2018,09,29,15,34,19.80
2018,09,29,15,35,19.70
2018,09,29,15,36,19.50
2018,09,29,15,37,19.30
2018,09,29,15,38,19.20
2018,09,29,15,39,19.10
2018,09,29,15,40,19.10
2018,09,29,15,41,19.10
2018,09,29,15,42,19.00
2018,09,29,15,43,19.00
2018,09,29,15,44,19.00
2018,09,29,15,45,19.10
2018,09,29,15,46,19.10
2018,09,29,15,47,19.10
2018,09,29,15,48,19.10
2018,09,29,15,49,19.20
2018,09,29,15,50,19.10
2018,09,29,15,51,19.00
2018,09,29,15,52,18.80
2018,09,29,15,53,18.70
2018,09,29,15,54,18.50
2018,09,29,15,55,18.40
2018,09,29,15,56,18.30
2018,09,29,15,57,18.20
2018,09,29,15,58,18.10
2018,09,29,15,59,18.00
2018,09,29,16,00,18.00
2018,09,29,16,01,18.00
2018,09,29,16,02,18.10
2018,09,29,16,03,18.20
2018,09,29,16,04,18.30
2018,09,29,16,05,18.30
2018,09,29,16,06,18.40
2018,09,29,16,07,18.40
2018,09,29,16,08,18.50
2018,09,29,16,09,18.50
2018,09,29,16,10,18.40
2018,09,29,16,11,18.40
2018,09,29,16,12,18.30
2018,09,29,16,13,18.20
2018,09,29,16,14,18.10
2018,09,29,16,15,18.00
2018,09,29,16,16,17.90
2018,09,29,16,17,17.80
2018,09,29,16,18,17.80
2018,09,29,16,19,17.70
2018,09,29,16,20,17.70
2018,09,29,16,21,17.60
2018,09,29,16,22,17.60
2018,09,29,16,23,17.60
2018,09,29,16,24,17.60
2018,09,29,16,25,17.70
2018,09,29,16,26,17.70
2018,09,29,16,27,17.70
2018,09,29,16,28,17.70
2018,09,29,16,29,17.70
2018,09,29,16,30,17.70
2018,09,29,16,31,17.70
2018,09,29,16,32,17.80
2018,09,29,16,33,17.80
2018,09,29,16,34,17.80
2018,09,29,16,35,17.80
2018,09,29,16,36,17.80
2018,09,29,16,37,17.70
2018,09,29,16,38,17.60
2018,09,29,16,39,17.50
2018,09,29,16,40,17.50
2018,09,29,16,41,17.50
2018,09,29,16,42,17.60
2018,09,29,16,43,17.60
2018,09,29,16,44,17.70
2018,09,29,16,45,17.70
2018,09,29,16,46,17.80
2018,09,29,16,47,17.80
2018,09,29,16,48,17.80
2018,09,29,16,49,17.70
2018,09,29,16,50,17.60
2018,09,29,16,51,17.60
2018,09,29,16,52,17.50
2018,09,29,16,53,17.50
2018,09,29,16,54,17.50
2018,09,29,16,55,17.50
2018,09,29,16,56,17.50
2018,09,29,16,57,17.50
2018,09,29,16,58,17.50
2018,09,29,16,59,17.60
2018,09,29,17,00,17.60
2018,09,29,17,01,17.60
2018,09,29,17,02,17.50
2018,09,29,17,03,17.50
2018,09,29,17,04,17.50
2018,09,29,17,05,17.40
2018,09,29,17,06,17.30
2018,09,29,17,07,17.30
2018,09,29,17,08,17.20
2018,09,29,17,09,17.10
2018,09,29,17,10,17.00
2018,09,29,17,11,16.90
2018,09,29,17,12,16.70
2018,09,29,17,13,16.60
2018,09,29,17,14,16.50
2018,09,29,17,15,16.40
2018,09,29,17,16,16.30
2018,09,29,17,17,16.30
2018,09,29,17,18,16.30
2018,09,29,17,19,16.30
2018,09,29,17,20,16.30
2018,09,29,17,21,16.30
2018,09,29,17,22,16.30
2018,09,29,17,23,16.20
2018,09,29,17,24,16.10
2018,09,29,17,25,16.00
2018,09,29,17,26,16.00
2018,09,29,17,27,15.90
2018,09,29,17,28,15.90
2018,09,29,17,29,15.80
2018,09,29,17,30,15.80
2018,09,29,17,31,15.70
2018,09,29,17,32,15.70
2018,09,29,17,33,15.70
2018,09,29,17,34,15.60
2018,09,29,17,35,15.60
2018,09,29,17,36,15.50
2018,09,29,17,37,15.40
2018,09,29,17,38,15.40
2018,09,29,17,39,15.30
2018,09,29,17,40,15.30
2018,09,29,17,41,15.30
2018,09,29,17,42,15.30
2018,09,29,17,43,15.30
2018,09,29,17,44,15.30